Regional Weather Roundup
Issued by NWS

Home | Current Version | Previous Version | Text Only | Print | Product List | Glossary On
Versions: 1 2 3 4 5 6 7 8 9 10 11 12 13 14 15 16 17 18 19 20 21 22 23 24 25 26 27 28 29 30 31 32 33 34 35 36 37 38 39 40 41 42 43 44 45 46 47 48 49 50
000
ASUS43 KDMX 011807
RWRIA

WEATHER ROUNDUP FOR IOWA
NATIONAL WEATHER SERVICE DES MOINES IA
100 PM CDT MON SEP 01 2014

NOTE: "FAIR" INDICATES FEW OR NO CLOUDS BELOW 12,000 FEET WITH NO
SIGNIFICANT WEATHER AND/OR OBSTRUCTIONS TO VISIBILITY.

* - THESE STATIONS ARE NOT NWS STATIONS...THUS NOT UNDER NWS
QUALITY CONTROL.  THEY ALSO DO NOT REPORT WEATHER SUCH
AS PRECIPITATION OR FOG.

IAZ001>003-012>014-020>022-031>034-043>046-011900-
   NORTHWEST IOWA

CITY           SKY/WX    TMP DP  RH WIND       PRES   REMARKS
CARROLL *      PTSUNNY   73  63  68 W12G17    29.85S
CHEROKEE *     MOSUNNY   73  63  71 W6        29.85S
DENISON *      MOSUNNY   73  63  68 W10       29.85S
LE MARS *      PTSUNNY   75  64  69 NW9       29.86S
ORANGE CITY *  MOSUNNY   75  63  64 W8G16     29.85S
SHELDON *      MOSUNNY   75  63  64 NW6G14    29.83S
SIOUX CITY     SUNNY     76  62  62 W7        29.86R
6HR MIN TEMP:  63; 6HR MAX TEMP:  76;

SPENCER        PTSUNNY   75  61  61 W10       29.83S
6HR MIN TEMP:  62; 6HR MAX TEMP:  76;

STORM LAKE *   MOSUNNY   72  68  88 NW10      29.85S
$$

IAZ055>058-069>071-079>083-090>094-011900-
   SOUTHWEST IOWA

CITY           SKY/WX    TMP DP  RH WIND       PRES   REMARKS
ATLANTIC *     SUNNY     75  63  64 W13       29.85F
AUDUBON *      SUNNY     79  66  65 NW9       29.87S HX  81
CLARINDA *     PTSUNNY   75  66  73 W8        29.89R
COUNCIL BLFS * SUNNY     75  64  69 W9G17     29.87S
CRESTON *      MOSUNNY   75  66  73 W16       29.85S
HARLAN  *      MOSUNNY   73  64  73 W16       29.90S
LAMONI         MOSUNNY   75  65  70 W14       29.85S
6HR MIN TEMP:  65; 6HR MAX TEMP:  76;

RED OAK *      MOSUNNY   77  64  65 W10       29.87S
SHENANDOAH *   MOSUNNY   75  66  73 W8G15     29.88S
$$

IAZ047>049-059>061-072>074-084-011900-
   CENTRAL IOWA

CITY           SKY/WX    TMP DP  RH WIND       PRES   REMARKS
AMES           MOSUNNY   78  65  63 W13G21    29.80R HX  80
6HR MIN TEMP:  67; 6HR MAX TEMP:  78; 6HR PCP: TRACE;

ANKENY *       PTSUNNY   75  64  69 W14G23    29.79S
CHARITON *     MOSUNNY   77  64  65 W15G22    29.83S
DES MOINES     MOSUNNY   80  65  59 W18       29.79S HX  82
6HR MIN TEMP:  69; 6HR MAX TEMP:  81;

GRINNELL*      MOSUNNY   77  66  69 W15       29.79F
KNOXVILLE *    PTSUNNY   77  66  69 W18       29.80R
MARSHALLTOWN   MOSUNNY   77  66  68 W18       29.77F
6HR MIN TEMP:  66; 6HR MAX TEMP:  77; 6HR PCP: TRACE;

PELLA *        MOSUNNY   79  67  67 W14       29.81S HX  81
PERRY *          N/A     77  64  65 W13G20    29.82S
$$

IAZ004>006-015-016-023>025-035-036-011900-
   NORTH CENTRAL IOWA

CITY           SKY/WX    TMP DP  RH WIND       PRES   REMARKS
ALGONA *       MOSUNNY   75  59  57 NW10G16   29.82R
CLARION *      MOSUNNY   75  66  73 NW13      29.80S
ESTHERVILLE    MOSUNNY   73  61  65 NW9       29.81S
6HR MIN TEMP:  62; 6HR MAX TEMP:  74;

FORT DODGE *   MOSUNNY   75  64  69 W10       29.82S
MASON CITY     PTSUNNY   74  65  73 W13G18    29.80S
6HR MIN TEMP:  66; 6HR MAX TEMP:  74; 6HR PCP:  0.01;

FOREST CITY *  MOSUNNY   73  63  68 NW10G17   29.80R
IOWA FALLS *   CLOUDY    73  64  73 W15G21    29.80R
$$

IAZ007>011-017>019-026>030-037>042-050>054-066-011900-
   NORTHEAST IOWA

CITY           SKY/WX    TMP DP  RH WIND       PRES   REMARKS
CEDAR RAPIDS   MOSUNNY   78  68  71 W16       29.76S HX  80
6HR MIN TEMP:  64; 6HR MAX TEMP:  78;

CHARLES CITY * HVY RAIN  66  63  88 W9G16     29.79R
CLINTON *      CLOUDY    81  66  61 W14G22    29.79S HX  83
DECORAH *      MOSUNNY   73  64  73 NW8       29.74S
DUBUQUE        MOSUNNY   75  66  73 W16G22    29.77S
6HR MIN TEMP:  64; 6HR MAX TEMP:  75;

MONTICELLO *   MOSUNNY   79  68  69 W15G21    29.76S HX  81
OELWEIN *      DRIZZLE   70  68  94 NW7G17    29.77S
WATERLOO       PTSUNNY   78  65  63 W16       29.75S HX  80
6HR MIN TEMP:  66; 6HR MAX TEMP:  78; 6HR PCP:  0.01;

$$

IAZ064-065-067-068-078-011900-
   EAST CENTRAL IOWA

CITY           SKY/WX    TMP DP  RH WIND       PRES   REMARKS
DAVENPORT      MOSUNNY   79  65  62 SW20G25   29.79S HX  81
6HR MIN TEMP:  65; 6HR MAX TEMP:  79; 6HR PCP: TRACE;

IOWA CITY      PTSUNNY   77  67  71 W16       29.79R
6HR MIN TEMP:  65; 6HR MAX TEMP:  79;

MT. PLEASANT * MOSUNNY   80  64  58 SW13      29.81F HX  81
MUSCATINE *    MOSUNNY   81  66  61 W16G22    29.79S HX  83
QUAD CITIES    SUNNY     80  64  58 W15G25    29.78S HX  82
6HR MIN TEMP:  67; 6HR MAX TEMP:  81;

$$

IAZ062-063-075>077-085>089-095>099-011900-
   SOUTHEAST IOWA

CITY           SKY/WX    TMP DP  RH WIND       PRES   REMARKS
BURLINGTON     LGT RAIN  79  66  64 W14       29.82F HX  81
6HR MIN TEMP:  67; 6HR MAX TEMP:  79; 6HR PCP: TRACE;

FAIRFIELD *    MOSUNNY   79  66  65 W13       29.81S HX  81
FORT MADISON * MOSUNNY   79  66  65 SW10      29.84F HX  81
KEOKUK *       PTSUNNY   77  66  69 W12G20    29.84S
OSKALOOSA *    PTSUNNY   77  67  71 W16       29.81S
CENTERVILLE *  SUNNY     77  68  73 W10G16    29.85S
OTTUMWA        MOSUNNY   78  67  68 W17       29.79S HX  80
6HR MIN TEMP:  65; 6HR MAX TEMP:  78;

WASHINGTON *   PTSUNNY   79  68  69 W12G21    29.80S HX  81
$$

ABBREVIATIONS USED IN REMARKS
   TC - TEMPERATURES IN CELSIUS
  WCI - WIND CHILL INDEX
   HX - HEAT INDEX
  VSB - VISIBILITY
$$



USA.gov is the U.S. government's official web portal to all federal, state and local government web resources and services.